Torna al catalogo

FENGYUN 1C DEB

AttivoSSO
NORAD 37693·DEBRIS·🇨🇳 China

Lanciato May 10, 1999 da Taiyuan Satellite Launch Center

Loading…

Prossimi Passaggi (prossime 24 ore)

TLE

In scadenzaSource: Space-Track

Epoca: Sep 9, 2026, 05:13 UTC

1 37693U 99025ELJ 26252.21737476  .00000695  00000-0  41539-3 0  9992
2 37693  98.7055 247.5817 0072574  31.8225  27.8275 14.08989902659577

Traccia FENGYUN 1C DEB in tempo reale con AllMySat

Download on the App Store